This is the latest recevied weather packets stored in our database for station/object W4SNA-3. If no packets are shown the sender has not sent any weather packets the latest 10 day(s).
| Time | Temp. | Humidity | Pressure | Rain* | Wind** | Luminosity | Snow |
|---|---|---|---|---|---|---|---|
| 1788473017 | 28.33° C | 67% | 1018.7 hPa | 0 mm | - | - | - |
| 1788472685 | 28.89° C | 65% | 1018.7 hPa | 0 mm | - | - | - |
| 1788472382 | 28.89° C | 67% | 1018.7 hPa | 0 mm | - | - | - |
| 1788472082 | 28.89° C | 66% | 1018.8 hPa | 0 mm | - | - | - |
| 1788471812 | 29.44° C | 65% | 1018.8 hPa | 0 mm | - | - | - |
| 1788471485 | 29.44° C | 64% | 1018.8 hPa | 0 mm | - | - | - |
| 1788471184 | 29.44° C | 63% | 1018.7 hPa | 0 mm | - | - | - |
| 1788470894 | 29.44° C | 63% | 1018.8 hPa | 0 mm | - | - | - |
| 1788470594 | 29.44° C | 64% | 1018.8 hPa | 0 mm | - | - | - |
| 1788470284 | 29.44° C | 63% | 1019 hPa | 0 mm | - | - | - |
| 1788469987 | 29.44° C | 64% | 1019.1 hPa | 0 mm | - | - | - |
| 1788469682 | 29.44° C | 65% | 1019.1 hPa | 0 mm | - | - | - |
| 1788469385 | 29.44° C | 63% | 1019.1 hPa | 0 mm | - | - | - |
| 1788469082 | 29.44° C | 62% | 1019.3 hPa | 0 mm | - | - | - |
| 1788468783 | 29.44° C | 63% | 1019.2 hPa | 0 mm | - | - | - |
| 1788468482 | 29.44° C | 62% | 1019.2 hPa | 0 mm | - | - | - |
| 1788468185 | 29.44° C | 64% | 1019.3 hPa | 0 mm | - | - | - |
| 1788467884 | 30° C | 62% | 1019.2 hPa | 0 mm | - | - | - |
| 1788467582 | 30° C | 64% | 1019.3 hPa | 0 mm | - | - | - |
| 1788467301 | 30° C | 64% | 1019.3 hPa | 0 mm | - | - | - |
| 1788466985 | 30° C | 62% | 1019.3 hPa | 0 mm | - | - | - |
| 1788466683 | 30° C | 60% | 1019.4 hPa | 0 mm | - | - | - |
| 1788466382 | 31.11° C | 62% | 1019.4 hPa | 0 mm | - | - | - |
| 1788466167 | 31.67° C | 59% | 1019.7 hPa | 0 mm | - | - | - |
| 1788465782 | 31.67° C | 59% | 1019.7 hPa | 0 mm | - | - | - |
* Rain latest hour (hover to see other rain measurements)
** Current wind speed in m/s (hover to see current wind gust speed)